TimeEST,TemperatureF,Dew PointF,Humidity,Sea Level PressureIn,VisibilityMPH,Wind Direction,Wind SpeedMPH,Gust SpeedMPH,PrecipitationIn,Events,Conditions,WindDirDegrees,DateUTC
12:15 AM,50.0,50.0,100,30.21,4.0,SSE,3.5,-,0.01,Rain,Light Rain,150,2013-02-11 05:15:00
12:35 AM,50.0,50.0,100,30.21,6.0,South,4.6,-,0.03,Rain,Light Rain,170,2013-02-11 05:35:00
12:55 AM,50.0,50.0,100,30.20,5.0,South,4.6,-,0.03,Rain,Light Rain,170,2013-02-11 05:55:00
1:15 AM,51.8,51.8,100,30.18,5.0,SSE,3.5,-,N/A,Rain,Light Rain,150,2013-02-11 06:15:00
1:35 AM,51.8,51.8,100,30.16,7.0,SSE,5.8,-,0.01,Rain,Light Rain,160,2013-02-11 06:35:00
1:55 AM,53.6,53.6,100,30.14,7.0,SSE,6.9,-,0.01,,Overcast,150,2013-02-11 06:55:00
2:15 AM,53.6,53.6,100,30.14,9.0,South,6.9,16.1,N/A,,Overcast,170,2013-02-11 07:15:00
2:35 AM,53.6,53.6,100,30.14,10.0,South,4.6,-,N/A,,Overcast,170,2013-02-11 07:35:00
2:55 AM,53.6,53.6,100,30.14,8.0,SSE,4.6,-,N/A,Rain,Light Rain,160,2013-02-11 07:55:00
3:15 AM,53.6,53.6,100,30.12,10.0,South,3.5,-,N/A,,Mostly Cloudy,170,2013-02-11 08:15:00
3:35 AM,55.4,55.4,100,30.11,9.0,SSE,5.8,-,N/A,Rain,Light Rain,150,2013-02-11 08:35:00
3:55 AM,55.4,55.4,100,30.11,10.0,South,4.6,-,0.01,,Overcast,180,2013-02-11 08:55:00
4:15 AM,55.4,55.4,100,30.09,7.0,South,4.6,-,N/A,Rain,Light Rain,170,2013-02-11 09:15:00
4:35 AM,55.4,55.4,100,30.08,8.0,South,4.6,-,N/A,Rain,Light Rain,180,2013-02-11 09:35:00
4:55 AM,55.4,55.4,100,30.09,10.0,South,6.9,-,N/A,,Mostly Cloudy,180,2013-02-11 09:55:00
5:15 AM,55.4,55.4,100,30.09,10.0,South,4.6,-,0.01,Rain,Light Rain,180,2013-02-11 10:15:00
5:35 AM,55.4,55.4,100,30.10,7.0,South,5.8,-,0.01,Rain,Light Rain,190,2013-02-11 10:35:00
5:55 AM,55.4,55.4,100,30.10,5.0,SSW,4.6,-,0.02,Rain,Light Rain,200,2013-02-11 10:55:00
6:15 AM,57.2,57.2,100,30.10,5.0,South,3.5,-,0.01,Rain,Light Rain,180,2013-02-11 11:15:00
6:35 AM,57.2,57.2,100,30.10,6.0,South,4.6,-,0.02,Rain,Light Rain,180,2013-02-11 11:35:00
6:55 AM,57.2,57.2,100,30.09,5.0,SSW,4.6,-,0.02,Rain,Light Rain,210,2013-02-11 11:55:00
7:15 AM,57.2,57.2,100,30.09,7.0,South,4.6,-,N/A,Rain,Light Rain,190,2013-02-11 12:15:00
7:35 AM,57.2,57.2,100,30.10,10.0,SSW,4.6,-,N/A,,Overcast,210,2013-02-11 12:35:00
7:55 AM,57.2,57.2,100,30.09,5.0,SSW,3.5,-,0.01,Rain,Light Rain,200,2013-02-11 12:55:00
8:15 AM,57.2,57.2,100,30.09,7.0,South,3.5,-,0.01,Rain,Light Rain,190,2013-02-11 13:15:00
8:35 AM,57.2,57.2,100,30.10,8.0,Calm,Calm,-,0.01,,Overcast,0,2013-02-11 13:35:00
8:55 AM,57.2,57.2,100,30.09,10.0,Calm,Calm,-,0.01,,Overcast,0,2013-02-11 13:55:00
9:15 AM,57.2,57.2,100,30.11,10.0,SSW,5.8,-,N/A,,Overcast,200,2013-02-11 14:15:00
9:35 AM,57.2,57.2,100,30.10,10.0,SSW,3.5,-,N/A,,Overcast,210,2013-02-11 14:35:00
9:55 AM,57.2,57.2,100,30.09,9.0,SSW,3.5,-,N/A,,Overcast,210,2013-02-11 14:55:00
10:15 AM,57.2,57.2,100,30.09,6.0,South,5.8,-,N/A,Rain,Light Rain,190,2013-02-11 15:15:00
10:35 AM,59.0,59.0,100,30.07,9.0,South,4.6,-,N/A,,Mostly Cloudy,190,2013-02-11 15:35:00
10:55 AM,59.0,59.0,100,30.07,10.0,South,4.6,-,N/A,,Overcast,180,2013-02-11 15:55:00
11:15 AM,59.0,59.0,100,30.07,9.0,SW,3.5,-,N/A,,Overcast,220,2013-02-11 16:15:00
11:35 AM,59.0,59.0,100,30.07,10.0,SSW,4.6,-,N/A,,Overcast,210,2013-02-11 16:35:00
11:55 AM,59.0,59.0,100,30.07,10.0,SSW,5.8,-,N/A,,Overcast,200,2013-02-11 16:55:00
12:15 PM,60.8,60.8,100,30.07,10.0,SW,5.8,-,N/A,,Overcast,220,2013-02-11 17:15:00
12:35 PM,60.8,60.8,100,30.07,10.0,SW,8.1,-,N/A,,Overcast,220,2013-02-11 17:35:00
12:55 PM,60.8,60.8,100,30.06,10.0,SW,6.9,16.1,N/A,,Overcast,220,2013-02-11 17:55:00
1:15 PM,60.8,60.8,100,30.04,10.0,SSW,6.9,-,N/A,,Overcast,210,2013-02-11 18:15:00
1:35 PM,60.8,60.8,100,30.02,9.0,South,6.9,-,N/A,Rain,Light Rain,180,2013-02-11 18:35:00
2:15 PM,62.6,62.6,100,30.03,10.0,West,9.2,-,N/A,,Overcast,260,2013-02-11 19:15:00
2:35 PM,62.6,62.6,100,30.01,10.0,WSW,6.9,-,N/A,,Overcast,240,2013-02-11 19:35:00
2:55 PM,62.6,62.6,100,30.04,9.0,WSW,8.1,-,N/A,Rain,Light Rain,250,2013-02-11 19:55:00
3:15 PM,62.6,62.6,100,30.03,10.0,SW,6.9,-,N/A,Rain,Light Rain,220,2013-02-11 20:15:00
3:35 PM,62.6,62.6,100,30.02,10.0,SW,8.1,-,N/A,,Mostly Cloudy,230,2013-02-11 20:35:00
3:55 PM,62.6,62.6,100,30.01,10.0,SW,6.9,-,N/A,,Partly Cloudy,220,2013-02-11 20:55:00
4:15 PM,62.6,62.6,100,30.01,10.0,SW,4.6,-,N/A,,Partly Cloudy,220,2013-02-11 21:15:00
4:35 PM,62.6,62.6,100,30.00,10.0,South,4.6,-,N/A,Rain,Light Rain,190,2013-02-11 21:35:00
6:15 PM,59.0,59.0,100,30.04,10.0,West,10.4,-,N/A,,Scattered Clouds,280,2013-02-11 23:15:00
6:35 PM,59.0,59.0,100,30.04,10.0,WSW,9.2,-,N/A,,Mostly Cloudy,250,2013-02-11 23:35:00
6:55 PM,59.0,59.0,100,30.03,10.0,SSW,5.8,-,N/A,,Partly Cloudy,200,2013-02-11 23:55:00
7:15 PM,59.0,57.2,94,30.04,10.0,SW,8.1,17.3,N/A,,Clear,230,2013-02-12 00:15:00
7:35 PM,59.0,57.2,94,30.03,10.0,WSW,9.2,-,N/A,,Clear,240,2013-02-12 00:35:00
7:55 PM,59.0,55.4,88,30.04,10.0,SW,11.5,18.4,N/A,,Clear,230,2013-02-12 00:55:00
8:15 PM,59.0,55.4,88,30.03,10.0,WSW,8.1,17.3,N/A,Rain,Light Rain,240,2013-02-12 01:15:00
8:35 PM,57.2,53.6,88,30.04,10.0,SW,8.1,-,N/A,Rain,Light Rain,220,2013-02-12 01:35:00
8:55 PM,57.2,53.6,88,30.03,10.0,SW,6.9,-,N/A,,Clear,230,2013-02-12 01:55:00
9:15 PM,57.2,53.6,88,30.03,10.0,SW,4.6,-,N/A,Rain,Light Rain,220,2013-02-12 02:15:00
9:35 PM,57.2,53.6,88,30.04,10.0,WSW,6.9,-,N/A,Rain,Light Rain,240,2013-02-12 02:35:00
9:55 PM,55.4,53.6,94,30.03,10.0,WSW,3.5,-,N/A,Rain,Light Rain,240,2013-02-12 02:55:00
10:15 PM,55.4,53.6,94,30.03,10.0,WSW,3.5,-,N/A,Rain,Light Rain,240,2013-02-12 03:15:00
10:35 PM,55.4,53.6,94,30.03,10.0,WSW,4.6,-,N/A,Rain,Light Rain,240,2013-02-12 03:35:00
10:55 PM,55.4,53.6,94,30.02,10.0,SW,3.5,-,N/A,Rain,Light Rain,220,2013-02-12 03:55:00
11:15 PM,53.6,53.6,100,30.01,10.0,Calm,Calm,-,N/A,Rain,Light Rain,0,2013-02-12 04:15:00
11:35 PM,53.6,53.6,100,30.02,10.0,SW,3.5,-,N/A,Rain,Light Rain,220,2013-02-12 04:35:00
11:55 PM,53.6,53.6,100,30.02,10.0,SW,3.5,-,N/A,Rain,Light Rain,220,2013-02-12 04:55:00